• In Hungary
  • List of Countries
  • For 7 days
  • Water Temperature
  • Satellite Maps
  • Weather Map
  • News
  • Weather Widgets
  • user-avatar
    Login

    Hourly Weather Gulb

    Today, 20 October, Friday

    Time Temperature Precipitation Wind Pressure Humidity
    00:00 +9°C° 0 mm 3 mps 754 mmHg 92%
    01:00 +9°C° 0 mm 2 mps 754 mmHg 95%
    02:00 +9°C° 0 mm 2 mps 754 mmHg 95%
    03:00 +9°C° 0 mm 3 mps 754 mmHg 95%
    04:00 +8°C° 0 mm 3 mps 754 mmHg 95%
    05:00 +8°C° 0 mm 3 mps 754 mmHg 95%
    06:00 +8°C° 0 mm 3 mps 754 mmHg 96%
    07:00 +8°C° 0 mm 2 mps 754 mmHg 96%
    08:00 +10°C° 0 mm 3 mps 754 mmHg 91%
    09:00 +11°C° 0 mm 3 mps 754 mmHg 86%
    10:00 +13°C° 0 mm 4 mps 754 mmHg 81%
    11:00 +14°C° 0 mm 4 mps 754 mmHg 77%
    12:00 +15°C° 0 mm 4 mps 754 mmHg 74%
    13:00 +17°C° 0 mm 4 mps 753 mmHg 71%
    14:00 +16°C° 0 mm 3 mps 753 mmHg 74%
    15:00 +16°C° 0 mm 3 mps 753 mmHg 77%
    16:00 +14°C° 0 mm 3 mps 753 mmHg 80%
    17:00 +14°C° 0 mm 3 mps 753 mmHg 82%
    18:00 +13°C° 0 mm 3 mps 753 mmHg 85%
    19:00 +12°C° 0 mm 3 mps 753 mmHg 87%
    20:00 +12°C° 0 mm 3 mps 753 mmHg 87%
    21:00 +12°C° 0 mm 3 mps 753 mmHg 87%
    22:00 +12°C° 0 mm 3 mps 753 mmHg 87%
    23:00 +12°C° 0 mm 3 mps 753 mmHg 87%

    Tomorrow, 21 October, Saturday

    Time Temperature Precipitation Wind Pressure Humidity
    00:00 +12°C° 0 mm 3 mps 752 mmHg 87%
    01:00 +12°C° 0 mm 3 mps 752 mmHg 87%
    02:00 +12°C° 0.4 mm 3 mps 752 mmHg 89%
    03:00 +12°C° 0.4 mm 3 mps 752 mmHg 90%
    04:00 +13°C° 0.4 mm 2 mps 751 mmHg 91%
    05:00 +12°C° 0.1 mm 2 mps 751 mmHg 91%
    06:00 +11°C° 0.1 mm 3 mps 751 mmHg 90%
    07:00 +11°C° 0.1 mm 3 mps 751 mmHg 90%
    08:00 +12°C° 0.1 mm 3 mps 751 mmHg 88%
    09:00 +13°C° 0.1 mm 2 mps 752 mmHg 86%
    10:00 +14°C° 0.1 mm 2 mps 752 mmHg 85%
    11:00 +15°C° 0.1 mm 2 mps 752 mmHg 81%
    12:00 +15°C° 0.1 mm 2 mps 752 mmHg 77%
    13:00 +16°C° 0.1 mm 2 mps 752 mmHg 74%
    14:00 +15°C° 0.1 mm 2 mps 752 mmHg 77%
    15:00 +15°C° 0.1 mm 2 mps 752 mmHg 80%
    16:00 +14°C° 0.1 mm 2 mps 752 mmHg 84%
    17:00 +14°C° 0 mm 2 mps 752 mmHg 87%
    18:00 +13°C° 0 mm 2 mps 752 mmHg 90%
    19:00 +12°C° 0 mm 1 mps 752 mmHg 93%
    20:00 +12°C° 0 mm 1 mps 753 mmHg 94%
    21:00 +12°C° 0 mm 1 mps 753 mmHg 94%
    22:00 +11°C° 0 mm 1 mps 753 mmHg 95%
    23:00 +10°C° 0 mm 2 mps 753 mmHg 95%

    Day after tomorrow, 22 October, Sunday

    Time Temperature Precipitation Wind Pressure Humidity
    00:00 +10°C° 0 mm 2 mps 753 mmHg 95%
    01:00 +10°C° 0 mm 3 mps 753 mmHg 94%
    02:00 +10°C° 0 mm 3 mps 753 mmHg 94%
    03:00 +10°C° 0 mm 3 mps 753 mmHg 94%
    04:00 +10°C° 0 mm 3 mps 753 mmHg 94%
    05:00 +10°C° 0 mm 3 mps 752 mmHg 93%
    06:00 +10°C° 0 mm 3 mps 752 mmHg 93%
    07:00 +10°C° 0 mm 4 mps 752 mmHg 93%
    08:00 +10°C° 0 mm 4 mps 752 mmHg 90%
    09:00 +11°C° 0 mm 4 mps 752 mmHg 88%
    10:00 +11°C° 0 mm 4 mps 752 mmHg 86%
    11:00 +11°C° 0.2 mm 4 mps 752 mmHg 85%
    12:00 +11°C° 0.2 mm 4 mps 752 mmHg 84%
    13:00 +11°C° 0.2 mm 4 mps 752 mmHg 83%
    14:00 +11°C° 0.5 mm 4 mps 751 mmHg 85%
    15:00 +11°C° 0.5 mm 3 mps 751 mmHg 87%
    16:00 +10°C° 0.5 mm 3 mps 751 mmHg 89%
    17:00 +10°C° 0.6 mm 3 mps 751 mmHg 90%
    18:00 +10°C° 0.6 mm 3 mps 751 mmHg 92%
    19:00 +10°C° 0.6 mm 3 mps 751 mmHg 93%
    20:00 +10°C° 0.4 mm 2 mps 751 mmHg 94%
    21:00 +10°C° 0.4 mm 2 mps 751 mmHg 94%
    22:00 +10°C° 0.4 mm 2 mps 751 mmHg 95%
    23:00 +9°C° 0.1 mm 2 mps 751 mmHg 95%

    23 October, Monday

    Time Temperature Precipitation Wind Pressure Humidity
    00:00 +10°C° 0.1 mm 1 mps 750 mmHg 95%
    01:00 +10°C° 0.1 mm 1 mps 750 mmHg 95%
    02:00 +10°C° 0 mm 1 mps 750 mmHg 95%
    03:00 +10°C° 0 mm 1 mps 750 mmHg 95%
    04:00 +8°C° 0 mm 2 mps 750 mmHg 95%
    05:00 +9°C° 0 mm 1 mps 750 mmHg 95%
    06:00 +9°C° 0 mm 1 mps 750 mmHg 95%
    07:00 +9°C° 0 mm 1 mps 750 mmHg 95%
    08:00 +10°C° 0.1 mm 1 mps 750 mmHg 91%
    09:00 +9°C° 0.1 mm 2 mps 750 mmHg 88%
    10:00 +10°C° 0.1 mm 2 mps 750 mmHg 85%
    11:00 +10°C° 0.2 mm 2 mps 750 mmHg 84%
    12:00 +12°C° 0.2 mm 2 mps 750 mmHg 83%
    13:00 +12°C° 0.2 mm 2 mps 750 mmHg 82%
    14:00 +12°C° 0.3 mm 2 mps 751 mmHg 85%
    15:00 +10°C° 0.3 mm 2 mps 751 mmHg 87%
    16:00 +10°C° 0.3 mm 2 mps 751 mmHg 89%
    17:00 +10°C° 0.4 mm 2 mps 751 mmHg 91%
    18:00 +9°C° 0.4 mm 2 mps 752 mmHg 92%
    19:00 +9°C° 0.4 mm 2 mps 752 mmHg 94%
    20:00 +9°C° 0.3 mm 2 mps 752 mmHg 94%
    21:00 +9°C° 0.3 mm 2 mps 753 mmHg 95%
    22:00 +9°C° 0.3 mm 2 mps 753 mmHg 95%
    23:00 +9°C° 0.1 mm 2 mps 753 mmHg 95%

    24 October, Tuesday

    Time Temperature Precipitation Wind Pressure Humidity
    00:00 +9°C° 0.1 mm 2 mps 754 mmHg 95%
    01:00 +9°C° 0.1 mm 2 mps 754 mmHg 94%
    02:00 +8°C° 0.1 mm 2 mps 754 mmHg 94%
    03:00 +8°C° 0.1 mm 2 mps 755 mmHg 94%
    04:00 +8°C° 0.1 mm 2 mps 755 mmHg 93%
    05:00 +8°C° 0 mm 2 mps 756 mmHg 93%
    06:00 +8°C° 0 mm 2 mps 756 mmHg 92%
    07:00 +7°C° 0 mm 2 mps 757 mmHg 91%
    08:00 +8°C° 0 mm 2 mps 757 mmHg 87%
    09:00 +9°C° 0 mm 2 mps 758 mmHg 82%
    10:00 +9°C° 0 mm 2 mps 759 mmHg 78%
    11:00 +10°C° 0 mm 2 mps 759 mmHg 75%
    12:00 +10°C° 0 mm 2 mps 759 mmHg 73%
    13:00 +12°C° 0 mm 1 mps 759 mmHg 70%
    14:00 +11°C° 0 mm 1 mps 759 mmHg 72%
    15:00 +11°C° 0 mm 1 mps 760 mmHg 75%
    16:00 +11°C° 0 mm 1 mps 760 mmHg 77%
    17:00 +9°C° 0 mm 2 mps 760 mmHg 79%
    18:00 +8°C° 0 mm 2 mps 761 mmHg 82%
    19:00 +8°C° 0 mm 2 mps 761 mmHg 84%
    20:00 +7°C° 0 mm 3 mps 762 mmHg 85%
    21:00 +7°C° 0 mm 3 mps 762 mmHg 86%
    22:00 +5°C° 0 mm 3 mps 762 mmHg 87%
    23:00 +5°C° 0 mm 3 mps 762 mmHg 87%

    25 October, Wednesday

    Time Temperature Precipitation Wind Pressure Humidity
    00:00 +5°C° 0 mm 3 mps 762 mmHg 87%
    01:00 +5°C° 0 mm 3 mps 762 mmHg 87%
    02:00 +5°C° 0 mm 2 mps 762 mmHg 87%
    03:00 +5°C° 0 mm 2 mps 763 mmHg 88%
    04:00 +5°C° 0 mm 2 mps 763 mmHg 88%
    05:00 +4°C° 0 mm 3 mps 763 mmHg 88%
    06:00 +3°C° 0 mm 3 mps 763 mmHg 87%
    07:00 +3°C° 0 mm 3 mps 763 mmHg 87%
    08:00 +4°C° 0 mm 4 mps 763 mmHg 81%
    09:00 +6°C° 0 mm 4 mps 763 mmHg 75%
    10:00 +7°C° 0 mm 5 mps 764 mmHg 70%
    11:00 +7°C° 0 mm 5 mps 763 mmHg 69%
    12:00 +7°C° 0 mm 5 mps 763 mmHg 69%
    13:00 +7°C° 0 mm 5 mps 763 mmHg 68%
    14:00 +7°C° 0 mm 5 mps 763 mmHg 68%
    15:00 +7°C° 0 mm 5 mps 763 mmHg 69%
    16:00 +7°C° 0 mm 5 mps 763 mmHg 69%
    17:00 +7°C° 0 mm 5 mps 763 mmHg 69%
    18:00 +7°C° 0 mm 5 mps 763 mmHg 69%
    19:00 +7°C° 0 mm 5 mps 763 mmHg 70%
    20:00 +7°C° 0 mm 5 mps 763 mmHg 70%
    21:00 +7°C° 0 mm 5 mps 763 mmHg 70%
    22:00 +7°C° 0 mm 5 mps 763 mmHg 71%
    23:00 +7°C° 0 mm 5 mps 763 mmHg 71%
    Show more